RJGG

Chūbu Centrair International Airport

Airport
ICAO code
RJGG
IATA Code
NGO
Summary
ICAO Region
APAC
ICAO Territory
Location

Ise Bay, Aichi Prefecture

Serving
Nagoya
Elevation
12 ft
Coordinates
34° 51' 32" N , 136° 48' 52" E
KCC
Metar
RJGG 202200Z 03003KT 330V080 9999 VCSH FEW015 BKN020 12/10 Q1019 TEMPO 4000 RA BR BKN008

Chūbu Centrair International Airport is an airport on an artificial island in Ise Bay, Tokoname City in Aichi Prefecture, 35 km south of Nagoya in central Japan.

Climatology

Humid “subtropical” climate (Köppen climate classification Cfa) - characterized by hot, humid summers and cool winters. Significant amounts of precipitation occur in all seasons in most areas. Winter rainfall (and sometimes snowfall) is associated with large storms that the westerlies steer from west to east. Most summer rainfall occurs during thunderstorms.

Runways

Designator Length Width Surface Rops
18/36 3500 60 PEM Yes/Yes

Airport map

Aerial View

SKYbrary Partners:

Safety knowledge contributed by: